Regional Weather Roundup
Issued by NWS Charleston, SC

Current Version | Previous Version | Text Only | Print | Product List | Glossary Off
Versions: 1 2 3 4 5 6 7 8 9 10 11 12 13 14 15 16 17 18 19 20 21 22 23 24 25 26 27 28 29 30 31 32 33 34 35 36 37 38 39 40 41 42 43 44 45 46 47 48 49 50

869
ASUS42 KCHS 301513
RWRCHS

REGIONAL WEATHER ROUNDUP
NATIONAL WEATHER SERVICE CHARLESTON SC
1100 AM EDT TUE AUG 30 2016

NOTE: "FAIR" INDICATES FEW OR NO CLOUDS BELOW 12,000 FEET WITH NO
SIGNIFICANT WEATHER AND/OR OBSTRUCTIONS TO VISIBILITY.

NOT ALL STATIONS ARE QUALITY CONTROLLED. USE DATA WITH CAUTION...
ESPECIALLY DEWPOINT OBSERVATIONS.

SCZ027-030-031-034>040-042>050-301600-
...SOUTHEAST SOUTH CAROLINA...

CITY           SKY/WX    TMP DP  RH WIND       PRES   REMARKS
N CHARLESTON   CLOUDY    77  73  87 NE5       30.10R
WATERFRONT PRK   N/A     77  76  97 NE5       30.07R
MOUNT PLEASANT DRIZZLE   75  73  94 CALM      30.10R
JOHNS ISLAND   DRIZZLE   75  73  94 SE7       30.11R
PINOPOLIS        N/A     77  72  83 E5        30.03R
MONCKS CORNER  CLOUDY    75  70  83 CALM      30.11R
SUMMERVILLE    FAIR      79  77  94 E6        30.11R
BEAUFORT MCAS  CLOUDY    79  75  87 NE6       30.09R
BEAUFORT ARPT  FAIR      79  75  89 NE5       30.08R
HILTON HEAD IS DRIZZLE   77  73  88 S6        30.09S
WALTERBORO     CLOUDY    81  81 100 E3        30.11R HX  91
ALLENDALE      PTSUNNY   84  73  70 VRB5      30.08S HX  91

...SOUTHERN MIDLANDS AND PEE DEE...

CITY           SKY/WX    TMP DP  RH WIND       PRES   REMARKS
GEORGETOWN     FAIR      79  70  73 NE3       30.11R
KINGSTREE      FAIR      81  70  69 E3        30.10R
ORANGEBURG     CLOUDY    84  73  69 VRB7      30.10R HX  90
BARNWELL       NOT AVBL
AIKEN          CLOUDY    77  70  78 NE8       30.15R
MANNING        FAIR      79  72  78 NE5       30.10R
COLUMBIA       PTSUNNY   81  72  74 CALM      30.10S
SUMTER         PTSUNNY   84  72  65 NE9       30.08R
FLORENCE       MOSUNNY   86  65  49 NE10G18   30.10R
MYRTLE BEACH   CLOUDY    82  63  51 N6        30.10S
N MYRTLE BEACH CLOUDY    80  68  66 N7        30.08S

$$

GAZ063-065-086>088-099>101-113>116-118-119-134>141-150-301600-
...SOUTHEAST GEORGIA...

CITY           SKY/WX    TMP DP  RH WIND       PRES   REMARKS
SAVANNAH ARPT  CLOUDY    75  71  87 E8        30.08F
HUNTER AAF     PTSUNNY   73  73 100 NE1       30.05F
FORT STEWART   PTSUNNY   79  74  84 NE7       30.04S
STATESBORO     PTSUNNY   83  76  78 E8        30.08S HX  92
SYLVANIA       NOT AVBL
CLAXTON        CLOUDY    85  76  74 NE10G17   30.08R HX  93

...CSRA...CENTRAL AND FAR SOUTHEAST GEORGIA...

CITY           SKY/WX    TMP DP  RH WIND       PRES   REMARKS
THOMSON        NOT AVBL
AUGUSTA-BUSH   PTSUNNY   86  71  60 E6        30.09R HX  91
AUGUSTA-DANIEL MOSUNNY   87  70  56 VRB7      30.11R HX  92
SWAINSBORO     PTSUNNY   86  70  58 E12       30.09R HX  90
VIDALIA        CLOUDY    84  79  84 E12G17    30.08R HX  96
EASTMAN        PTSUNNY   87  64  47 E9        30.09R
HAZLEHURST     PTSUNNY   85  77  77 E3        30.05R HX  96
ALMA           MOSUNNY   84  74  71 E8        30.04S HX  91
WAYCROSS         N/A     88  78  72 E7        30.04R HX 101
JESUP          FAIR      86  81  84 E8        30.05S HX 102
BAXLEY         PTSUNNY   86  79  79 E8G16     30.05R HX  99
BRUNSWICK      LGT RAIN  81  77  89 NE13      30.04S
SAINT SIMONS   MOSUNNY   86  74  67 E13       30.03R HX  94

$$

SCZ027-028-034-036>038-045-046-048>050-GAZ119-141-301600-
...LAKE AND SUPPLEMENTAL COASTAL OBSERVATIONS...

STATION/POSITION TIME  TEMP    WIND        PRES    WAVE   SWELL
                       AIR SEA DIR/SP/G            HT/PER HT/PER/DIR
                 (UTC) (F)     (DEG/KT/KT) (MB)    (FT/S) (FT/S/D)
WINYAH BAY       1345   79      40/  6     1018.0
LAKE MURRAY      1400   78      30/  2/  4 1019.3R
ACE BASIN NERRS  NOT AVBL
FORT PULASKI     1400   76 85  110/  6/  9 1019.4R
SAPELO ISLAND    1400   84      70/  7     1017.0S

$$

ANZ835-935-AMZ111-154-330-350-352-354-370-450-454-472-301600-
...C-MAN AND BUOY OBSERVATIONS...

STATION/POSITION TIME  TEMP    WIND        PRES    WAVE   SWELL
                       AIR SEA DIR/SP/G            HT/PER HT/PER/DIR
                 (UTC) (F)     (DEG/KT/KT) (MB)    (FT/S) (FT/S/D)
BUOY 41004       1450   77 85  170/  6/ 10 1018.4R   4/12   3/120/12
BUOY 41008       1450   82 85   60/ 14/ 16 1017.2R   3/13   3/ 80/13
FOLLY BEACH CMAN 1500   76     150/ 14/ 15 1020.0R
CAPERS NEARSHORE 1408   80 83   60/ 10/ 14 1018.5R
FRIPP NEARSHORE  1408   81 85   70/ 10/ 12 1017.7R


STATION/POSITION TIME  TEMP    WIND        PRES    WAVE   SWELL
                       AIR SEA DIR/SP/G            HT/PER HT/PER/DIR
                 (UTC) (F)     (DEG/KT/KT) (MB)    (FT/S) (FT/S/D)
5E ST. MARYS GA  1401      84                N/A     4/13   2/100/13
FRYING PAN BUOY  1400   81 85   30/  8/ 12 1017.1F
BUOY 41025       1450   83 84   70/ 14/ 17 1016.7R   7/12   5/120/12
CAPE LOOKOUT NC  1500   82      10/ 13/ 15 1017.0S
BUOY 41002       1450   83 84  280/ 10/ 14 1017.5R   4/10   3/110/10
BUOY 41010       NOT AVBL
ST AUGUSTINE FL  1500   75 83  150/ 14/ 17 1016.6R


$$




USA.gov is the U.S. government's official web portal to all federal, state and local government web resources and services.